Regional Weather Roundup
Issued by NWS Wakefield, VA

Home | Current Version | Previous Version | Text Only | Print | Product List | Glossary Off
Versions: 1 2 3 4 5 6 7 8 9 10 11 12 13 14 15 16 17 18 19 20 21 22 23 24 25 26 27

000
ASUS41 KAKQ 190213
RWRAKQ

REGIONAL WEATHER ROUNDUP
NATIONAL WEATHER SERVICE WAKEFIELD VA
900 PM EST SAT NOV 18 2017

Note: "fair" indicates few or no clouds below 12,000 feet with no
significant weather and/or obstructions to visibility. * = Denotes
station may not report precipitation (e.g., rain,snow,etc.),
thunder or fog.

VAZ042-051-052>054-056-190300-
NORTHERN VIRGINIA

CITY           SKY/WX    TMP DP  RH WIND       PRES   REMARKS
WASH NATIONAL  CLOUDY    61  48  62 S15G23    29.50F
DULLES         CLOUDY    61  46  57 S22G37    29.46F
FORT BELVOIR   CLOUDY    61  47  59 S10G22    29.52F
QUANTICO       NOT AVBL
FREDERICKSBRG* CLOUDY    62  50  63 S14G23    29.55S
STAFFORD*      CLOUDY    61  47  59 SW8G20    29.58F
WARRENTON      NOT AVBL
CULPEPER*      CLOUDY    63  45  51 S17G28    29.51F
MANASSAS*      CLOUDY    63  47  55 S23G37    29.47F
LEESBURG*      MOCLDY    61  50  67 S21G31    29.45F
WINCHESTER     MOCLDY    59  45  58 SW17G23   29.42F
FRONT ROYAL*   MOCLDY    59  45  58 SW10G20   29.43F
LURAY*         MOCLDY    59  46  63 SW7       29.45F
$$

VAZ048-049-060>072-079>083-190300-
CENTRAL AND SOUTH CENTRAL VIRGINIA

CITY           SKY/WX    TMP DP  RH WIND       PRES   REMARKS
RICHMOND       CLOUDY    62  51  67 S16       29.61S
CHESTERFIELD*  NOT AVBL
PETERSBURG*    CLOUDY    61  31  32 S7        29.64F
HANOVER        MOCLDY    63  50  62 S13G28    29.61S
TAPPAHANNOCK*    N/A    N/A N/A N/A MISG        N/A
QUINTON*       MOCLDY    63  52  67 S10G20    29.61S
CHARLOTTSVILLE CLOUDY    61  47  59 S21G26    29.51F
GORDONSVILLE*  MOCLDY    61  47  60 S21G36    29.51F
ORANGE*        CLOUDY    61  45  55 S17G23    29.52F
LOUISA*          N/A     61  47  59 S13G23      N/A
BUMPASS*       CLOUDY    60  47  61 SW7       29.58S
FARMVILLE*     CLOUDY    64  51  64 SW13G18   29.58F
CREWE*         MOCLDY    62  51  65 S9G21     29.61F
FORT PICKETT*  NOT AVBL
CHASE CITY*    CLOUDY    62  50  63 S9        29.63F
CLARKSVILLE*   FAIR      63  50  63 S16G23    29.63F
SOUTH HILL*    CLOUDY    60  53  77 S13       29.70F
LAWRENCEVILLE* MOCLDY    60  52  75 S9        29.64F
EMPORIA*       CLOUDY    59  52  77 SE7       29.68F
$$

VAZ088>098-190300-
SOUTHEAST VIRGINIA

CITY           SKY/WX    TMP DP  RH WIND       PRES   REMARKS
NORFOLK        CLOUDY    63  53  70 S24G30    29.67F
VIRGINIA BEACH CLOUDY    63  52  67 S16G23    29.69F
NORFOLK NAVAL  CLOUDY    63  52  67 S13G26    29.68F
WEST POINT*    CLOUDY    62  51  66 S13G18    29.64S
SALUDA*        FAIR      62  53  73 S13G26    29.62S
NEWPORT NEWS   MOCLDY    62  52  69 S16       29.66F
LANGLEY AFB    CLOUDY    63  54  72 S21G29    29.66F
FORT EUSTIS    CLOUDY    62  53  73 S9        29.63F
WILLIAMSBURG*  CLOUDY    63  54  72 S9G17     29.66S
HR EXEC AP*    NOT AVBL
FRANKLIN*      CLOUDY    61  53  74 S13       29.69F
US460-WAKEFLD  MOCLDY    61  53  75 S10G17    29.65F
$$

VAZ020-022-025-037-045-190300-
WEST CENTRAL AND SOUTHWEST VIRGINIA

CITY           SKY/WX    TMP DP  RH WIND       PRES   REMARKS
STAUNTON*      CLOUDY    56  45  66 S6        29.50F
WAYNESBORO*    CLOUDY    57  47  68 S13G18    29.50F
HOT SPRINGS VA CLOUDY    49  43  77 S15G23    29.54F
LYNCHBURG      MOCLDY    59  46  62 S17G28    29.57F
DANVILLE       CLOUDY    63  50  62 SW9G20    29.62F
SOUTH BOSTON*  CLOUDY    64  48  56 S13G18    29.63F
MARTINSVILLE   CLOUDY    60  47  63 SW10      29.63F
ROANOKE        CLOUDY    61  49  64 S8G17     29.57F
BLACKSBURG     CLOUDY    56  49  78 S7G17     29.59F
DUBLIN*        CLOUDY    57  50  77 SW14G20   29.58F
MARION*        CLOUDY    58  46  65 CALM      29.55F
HILLSVILLE*    CLOUDY    53  49  86 S21G31    29.57F
RICHLANDS*     CLOUDY    60   9  13 SW9G23    29.49F
WISE*          RAIN      55  55 100 S13G21    29.47F
ABINGDON*      CLOUDY    65  50  58 SW15G24   29.48F
$$

MDZ021>025-VAZ099-100-190300-
SOUTHERN MARYLAND AND THE DELMARVA PENINSULA

CITY           SKY/WX    TMP DP  RH WIND       PRES   REMARKS
PATUXENT RIVER NOT AVBL
BAY BRIDGE APT CLOUDY    59  48  67 S16G23    29.53F
LEONARDTOWN    CLOUDY    61  50  67 SW14G22   29.58F
DOVER          PTCLDY    61  59  95 S21G31    29.52F
GEORGETOWN     PTCLDY    61  50  67 SW17G26   29.59F
EASTON         PTCLDY    61  48  63 S17       29.60S
CAMBRIDGE      CLEAR     59  50  72 S14G23    29.58S
SALISBURY      CLOUDY    61  52  72 S17G23    29.60F
OCEAN CITY     MOCLDY    59  51  75 SW20G37   29.62F
WALLOPS ISLAND CLOUDY    59  52  77 S22       29.64F
ACCOMACK*      CLOUDY    61  52  71 S15G25    29.65S
$$

NCZ012>017-030>032-190300-
NORTH CENTRAL AND EASTERN NORTH CAROLINA

CITY           SKY/WX    TMP DP  RH WIND       PRES   REMARKS
ROANOKE RAPIDS   N/A    N/A N/A N/A MISG        N/A
RALEIGH        CLOUDY    63  52  67 SW15G23   29.69F
ELIZABETH CITY CLOUDY    64  58  80 S14G23    29.73F
AHOSKIE*       PTCLDY    61  55  81 S9G16     29.70F
EDENTON*       CLOUDY    62  56  80 S13       29.75S
CURRITUCK*     CLOUDY    62  56  79 S7G18     29.73F
KILL DEVIL HLS CLOUDY    61  55  81 SW10G20   29.75F
MANTEO         CLOUDY    61  56  83 SW17      29.77F
CAPE HATTERAS  CLOUDY    67  60  78 SW13G20   29.80F
TARBORO*       NOT AVBL
GOLDSBORO      MOCLDY    64  56  75 S13G22    29.72F
WASHINGTON     CLOUDY    64  56  75 SW8       29.75F
GREENVILLE     MOCLDY    63  55  77 S9        29.76F
NEW BERN       CLOUDY    65  57  75 SW15G24   29.79F
WILMINGTON     MOCLDY    66  55  67 SW13      29.81F
$$

VAZ048-190300-
ELSEWHERE

CITY           SKY/WX    TMP DP  RH WIND       PRES   REMARKS
HARRISBURG PA  LGT RAIN  44  44 100 E3        29.42F FOG
BALTIMORE      CLOUDY    60  46  59 S10G20    29.49F
ANNAPOLIS      NOT AVBL
ANDREWS AFB    CLOUDY    60  46  61 S21G29    29.51F
PHILADELPHIA   CLOUDY    55  44  66 S9        29.51F
HENDERSON NC   PTCLDY    60  49  67 S13G23    29.65F
GREENSBORO     CLOUDY    63  50  62 SW21G31   29.64F
ROCKY MOUNT    CLOUDY    63  57  81 S13       29.71F
$$

VAZ100-190300-
MARINE

STATION/POSITION TIME  TEMP    WIND        PRES    WAVE   SWELL
                       AIR SEA DIR/SP/G            HT/PER HT/PER
                 (UTC) (F)     (DEG/KT/KT) (MB)    (FT/S) (FT/S)
15NM E FENWICK I 0150   63 59  190/ 31/ 39 1001.5F   9/ 7
THOMAS POINT MD  0200   59 54  190/ 21/ 23   N/A
CAPE HENRY BUOY  0200      59                N/A     4/ 5
CAPE CHARLES BUO 0151      57                N/A     4/ 5
64NM E OF VA BCH 0150   65 62  200/ 23/ 27 1007.2F   5/ 5   2/ 9
44100 DUCK FRF   0145      62                N/A     3/ 4
44056 DUCK FRF   0200      61                N/A     2/11
DIAMOND SHLS NC  0150   71 67  200/ 23/ 33 1009.7F   6/ 6   2/ 9
CAPE LOOKOUT NC  0200          220/ 11/ 14 1009.8F
$$




USA.gov is the U.S. government's official web portal to all federal, state and local government web resources and services.